Regional Weather Roundup
Issued by NWS

Home | Current Version | Previous Version | Graphics & Text | Print | Product List | Glossary On
Versions: 1 2 3 4 5 6 7 8 9 10 11 12 13 14 15 16 17 18 19 20 21 22 23 24 25 26 27 28 29 30 31 32 33 34 35 36 37 38 39 40 41 42 43 44 45 46 47 48 49 50
000
ASUS43 KBIS 230120
RWRND

NORTH DAKOTA REGIONAL WEATHER ROUNDUP
NATIONAL WEATHER SERVICE BISMARCK ND
700 PM CST MON DEC 22 2014

NOTE: "FAIR" INDICATES FEW OR NO CLOUDS BELOW 12,000 FEET WITH NO
SIGNIFICANT WEATHER AND/OR OBSTRUCTIONS TO VISIBILITY.


NDZ001>003-009>011-017-230200-
NORTHWEST NORTH DAKOTA

CITY           SKY/WX    TMP DP  RH WIND       PRES   REMARKS
WILLISTON      CLOUDY    27  23  85 N16       29.81R WCI  15
MINOT          CLOUDY    29  27  92 NW15      29.73R WCI  18
MINOT AFB      CLOUDY    29  29 100 N13       29.73R WCI  18
$$

NDZ018>021-031>035-040>046-230200-
SOUTHWEST NORTH DAKOTA

CITY           SKY/WX    TMP DP  RH WIND       PRES   REMARKS
BISMARCK       CLOUDY    30  29  96 N17G23    29.66R WCI  18
DICKINSON      LGT SNOW  25  20  81 NW21      29.71R WCI  11
GARRISON         N/A     28  26  92 N14       29.71R WCI  17
HETTINGER ARPT LGT SNOW  24  20  84 NW20G29   29.69R FOG     WCI  10
$$

NDZ004>008-012>016-024-026-027-054-230200-
NORTHEAST NORTH DAKOTA

CITY           SKY/WX    TMP DP  RH WIND       PRES   REMARKS
GRAND FORKS    LGT RAIN  36  35  96 NE8       29.66R
GRND FRKS AFB  LGT RAIN  36  36 100 NE8       29.67R
DEVILS LAKE    CLOUDY    34  32  93 NE12      29.67R
$$

NDZ022-023-025-028>030-036>039-047>053-230200-
SOUTHEAST NORTH DAKOTA

CITY           SKY/WX    TMP DP  RH WIND       PRES   REMARKS
FARGO          LGT RAIN  37  34  89 E8        29.61R
JAMESTOWN      CLOUDY    34  33  96 NE10      29.58R FOG
$$




USA.gov is the U.S. government's official web portal to all federal, state and local government web resources and services.